Time,TemperatureF,DewpointF,PressureIn,WindDirection,WindDirectionDegrees,WindSpeedMPH,WindSpeedGustMPH,Humidity,HourlyPrecipIn,Conditions,Clouds,dailyrainin,SoftwareType,DateUTC
2013-05-04 00:07:00,49.6,35.0,30.02,WNW,297,0.0,-999.0,58,-99.99,,,0.00,weatherlink.com 1.10,2013-05-04 05:07:00,
2013-05-04 00:22:00,49.7,35.0,30.02,WNW,297,0.0,-999.0,57,-99.99,,,0.00,weatherlink.com 1.10,2013-05-04 05:22:00,
2013-05-04 00:37:00,49.7,36.0,30.01,WNW,297,0.0,-999.0,59,-99.99,,,0.00,weatherlink.com 1.10,2013-05-04 05:37:00,
2013-05-04 00:52:00,49.2,36.0,30.01,WNW,297,0.0,-999.0,60,-99.99,,,0.00,weatherlink.com 1.10,2013-05-04 05:52:00,
2013-05-04 01:07:00,48.5,35.0,30.01,WNW,297,0.0,-999.0,60,-99.99,,,0.00,weatherlink.com 1.10,2013-05-04 06:07:00,
2013-05-04 01:22:00,48.5,36.0,30.00,WNW,297,0.0,-999.0,62,-99.99,,,0.00,weatherlink.com 1.10,2013-05-04 06:22:00,
2013-05-04 01:37:00,48.0,36.0,30.00,WNW,297,0.0,-999.0,64,-99.99,,,0.00,weatherlink.com 1.10,2013-05-04 06:37:00,
2013-05-04 01:52:00,47.3,37.0,29.99,WNW,297,0.0,-999.0,67,-99.99,,,0.00,weatherlink.com 1.10,2013-05-04 06:52:00,
2013-05-04 02:07:00,46.9,37.0,29.99,WNW,297,0.0,-999.0,69,-99.99,,,0.00,weatherlink.com 1.10,2013-05-04 07:07:00,
2013-05-04 02:22:00,46.1,37.0,29.98,WNW,297,0.0,-999.0,71,-99.99,,,0.00,weatherlink.com 1.10,2013-05-04 07:22:00,
2013-05-04 02:37:00,45.6,37.0,29.98,WNW,296,0.0,-999.0,73,-99.99,,,0.00,weatherlink.com 1.10,2013-05-04 07:37:00,
2013-05-04 02:52:00,45.2,38.0,29.98,WNW,296,0.0,-999.0,76,-99.99,,,0.00,weatherlink.com 1.10,2013-05-04 07:52:00,
2013-05-04 03:08:00,45.5,38.0,29.98,WNW,297,0.0,-999.0,76,-99.99,,,0.00,weatherlink.com 1.10,2013-05-04 08:08:00,
2013-05-04 03:23:00,45.0,39.0,29.98,WNW,297,0.0,-999.0,78,-99.99,,,0.00,weatherlink.com 1.10,2013-05-04 08:23:00,
2013-05-04 03:38:00,45.0,39.0,29.97,WNW,297,0.0,-999.0,79,-99.99,,,0.00,weatherlink.com 1.10,2013-05-04 08:38:00,
2013-05-04 03:53:00,45.0,39.0,29.97,WNW,297,0.0,-999.0,80,-99.99,,,0.00,weatherlink.com 1.10,2013-05-04 08:53:00,
2013-05-04 04:08:00,44.7,39.0,29.97,WNW,297,0.0,-999.0,79,-99.99,,,0.00,weatherlink.com 1.10,2013-05-04 09:08:00,
2013-05-04 04:23:00,44.7,38.0,29.98,WNW,297,0.0,-999.0,78,-99.99,,,0.00,weatherlink.com 1.10,2013-05-04 09:23:00,
2013-05-04 04:38:00,44.7,37.0,29.97,WNW,297,0.0,-999.0,75,-99.99,,,0.00,weatherlink.com 1.10,2013-05-04 09:38:00,
2013-05-04 04:53:00,44.8,37.0,29.96,WNW,297,0.0,-999.0,74,-99.99,,,0.00,weatherlink.com 1.10,2013-05-04 09:53:00,
2013-05-04 05:08:00,45.1,36.0,29.96,WNW,296,0.0,-999.0,71,-99.99,,,0.00,weatherlink.com 1.10,2013-05-04 10:08:00,
2013-05-04 05:23:00,45.1,36.0,29.96,WNW,296,0.0,-999.0,70,-99.99,,,0.00,weatherlink.com 1.10,2013-05-04 10:23:00,
2013-05-04 05:38:00,45.0,36.0,29.96,WNW,296,0.0,-999.0,71,-99.99,,,0.00,weatherlink.com 1.10,2013-05-04 10:38:00,
2013-05-04 05:53:00,44.7,37.0,29.96,WNW,297,0.0,-999.0,73,-99.99,,,0.00,weatherlink.com 1.10,2013-05-04 10:53:00,
2013-05-04 06:08:00,44.2,36.0,29.96,WNW,297,0.0,-999.0,72,-99.99,,,0.00,weatherlink.com 1.10,2013-05-04 11:08:00,
2013-05-04 06:23:00,44.1,36.0,29.95,WNW,297,0.0,-999.0,73,-99.99,,,0.00,weatherlink.com 1.10,2013-05-04 11:23:00,
2013-05-04 06:38:00,43.8,36.0,29.96,WNW,297,0.0,-999.0,75,-99.99,,,0.00,weatherlink.com 1.10,2013-05-04 11:38:00,
2013-05-04 06:53:00,44.1,36.0,29.96,WNW,297,0.0,-999.0,74,-99.99,,,0.00,weatherlink.com 1.10,2013-05-04 11:53:00,
2013-05-04 07:08:00,45.7,37.0,29.96,WNW,297,0.0,-999.0,71,-99.99,,,0.00,weatherlink.com 1.10,2013-05-04 12:08:00,
2013-05-04 07:23:00,47.9,38.0,29.96,WNW,297,0.0,-999.0,69,-99.99,,,0.00,weatherlink.com 1.10,2013-05-04 12:23:00,
2013-05-04 07:38:00,49.2,38.0,29.96,NW,305,0.0,-999.0,65,-99.99,,,0.00,weatherlink.com 1.10,2013-05-04 12:38:00,
2013-05-04 07:53:00,51.0,39.0,29.96,NW,306,0.0,-999.0,63,-99.99,,,0.00,weatherlink.com 1.10,2013-05-04 12:53:00,
2013-05-04 08:08:00,54.3,41.0,29.96,NW,306,0.0,-999.0,61,-99.99,,,0.00,weatherlink.com 1.10,2013-05-04 13:08:00,
2013-05-04 08:23:00,55.0,38.0,29.96,NW,306,0.0,-999.0,53,-99.99,,,0.00,weatherlink.com 1.10,2013-05-04 13:23:00,
2013-05-04 08:38:00,55.1,36.0,29.96,WNW,282,0.0,-999.0,48,-99.99,,,0.00,weatherlink.com 1.10,2013-05-04 13:38:00,
2013-05-04 08:53:00,56.5,37.0,29.96,WNW,282,0.0,-999.0,49,-99.99,,,0.00,weatherlink.com 1.10,2013-05-04 13:53:00,
2013-05-04 09:08:00,59.0,38.0,29.96,WNW,282,0.0,-999.0,45,-99.99,,,0.00,weatherlink.com 1.10,2013-05-04 14:08:00,
2013-05-04 09:23:00,60.0,37.0,29.95,West,276,0.0,-999.0,42,-99.99,,,0.00,weatherlink.com 1.10,2013-05-04 14:23:00,
2013-05-04 09:38:00,61.5,37.0,29.95,West,269,0.0,-999.0,41,-99.99,,,0.00,weatherlink.com 1.10,2013-05-04 14:38:00,
2013-05-04 09:53:00,61.6,37.0,29.95,WSW,240,0.0,-999.0,41,-99.99,,,0.00,weatherlink.com 1.10,2013-05-04 14:53:00,
2013-05-04 10:08:00,62.3,37.0,29.95,WNW,283,3.0,-999.0,39,-99.99,,,0.00,weatherlink.com 1.10,2013-05-04 15:08:00,
2013-05-04 10:23:00,63.6,37.0,29.95,WSW,242,0.0,-999.0,38,-99.99,,,0.00,weatherlink.com 1.10,2013-05-04 15:23:00,
2013-05-04 10:38:00,64.7,37.0,29.95,WNW,295,0.0,-999.0,36,-99.99,,,0.00,weatherlink.com 1.10,2013-05-04 15:38:00,
2013-05-04 10:53:00,66.0,37.0,29.95,WSW,244,0.0,-999.0,34,-99.99,,,0.00,weatherlink.com 1.10,2013-05-04 15:53:00,
2013-05-04 11:09:00,67.3,36.0,29.94,NW,313,2.0,-999.0,31,-99.99,,,0.00,weatherlink.com 1.10,2013-05-04 16:09:00,
2013-05-04 11:24:00,66.6,35.0,29.95,West,265,0.0,-999.0,31,-99.99,,,0.00,weatherlink.com 1.10,2013-05-04 16:24:00,
2013-05-04 11:39:00,67.1,35.0,29.95,West,273,4.0,-999.0,31,-99.99,,,0.00,weatherlink.com 1.10,2013-05-04 16:39:00,
2013-05-04 11:54:00,67.6,37.0,29.95,North,360,7.0,-999.0,32,-99.99,,,0.00,weatherlink.com 1.10,2013-05-04 16:54:00,
2013-05-04 12:09:00,68.5,37.0,29.95,NW,309,3.0,-999.0,31,-99.99,,,0.00,weatherlink.com 1.10,2013-05-04 17:09:00,
2013-05-04 12:24:00,68.5,37.0,29.94,SW,223,7.0,-999.0,31,-99.99,,,0.00,weatherlink.com 1.10,2013-05-04 17:24:00,
2013-05-04 12:39:00,69.2,37.0,29.94,WNW,283,0.0,-999.0,31,-99.99,,,0.00,weatherlink.com 1.10,2013-05-04 17:39:00,
2013-05-04 12:54:00,68.5,37.0,29.93,West,264,2.0,-999.0,31,-99.99,,,0.00,weatherlink.com 1.10,2013-05-04 17:54:00,
2013-05-04 13:09:00,68.8,35.0,29.93,NW,313,2.0,-999.0,29,-99.99,,,0.00,weatherlink.com 1.10,2013-05-04 18:09:00,
2013-05-04 13:24:00,69.0,35.0,29.93,West,265,1.0,-999.0,29,-99.99,,,0.00,weatherlink.com 1.10,2013-05-04 18:24:00,
2013-05-04 13:39:00,69.5,35.0,29.93,West,261,6.0,-999.0,28,-99.99,,,0.00,weatherlink.com 1.10,2013-05-04 18:39:00,
2013-05-04 13:54:00,69.8,35.0,29.93,West,264,2.0,-999.0,28,-99.99,,,0.00,weatherlink.com 1.10,2013-05-04 18:54:00,
2013-05-04 14:09:00,69.9,35.0,29.92,West,271,0.0,-999.0,28,-99.99,,,0.00,weatherlink.com 1.10,2013-05-04 19:09:00,
2013-05-04 14:24:00,70.3,35.0,29.91,WSW,246,2.0,-999.0,27,-99.99,,,0.00,weatherlink.com 1.10,2013-05-04 19:24:00,
2013-05-04 14:39:00,70.9,35.0,29.91,WSW,244,0.0,-999.0,27,-99.99,,,0.00,weatherlink.com 1.10,2013-05-04 19:39:00,
2013-05-04 14:54:00,70.9,35.0,29.91,West,280,5.0,-999.0,27,-99.99,,,0.00,weatherlink.com 1.10,2013-05-04 19:54:00,
2013-05-04 15:09:00,71.8,35.0,29.89,WSW,248,1.0,-999.0,26,-99.99,,,0.00,weatherlink.com 1.10,2013-05-04 20:09:00,
2013-05-04 15:24:00,72.0,35.0,29.89,West,264,0.0,-999.0,26,-99.99,,,0.00,weatherlink.com 1.10,2013-05-04 20:24:00,
2013-05-04 15:39:00,72.5,34.0,29.89,NNW,340,0.0,-999.0,24,-99.99,,,0.00,weatherlink.com 1.10,2013-05-04 20:39:00,
2013-05-04 15:54:00,72.0,32.0,29.89,SSW,205,3.0,-999.0,23,-99.99,,,0.00,weatherlink.com 1.10,2013-05-04 20:54:00,
2013-05-04 16:09:00,71.5,32.0,29.88,WSW,248,11.0,-999.0,23,-99.99,,,0.00,weatherlink.com 1.10,2013-05-04 21:09:00,
2013-05-04 16:24:00,71.4,32.0,29.88,NNW,328,1.0,-999.0,23,-99.99,,,0.00,weatherlink.com 1.10,2013-05-04 21:24:00,
2013-05-04 16:39:00,71.5,31.0,29.88,South,170,0.0,-999.0,22,-99.99,,,0.00,weatherlink.com 1.10,2013-05-04 21:39:00,
2013-05-04 16:54:00,72.1,33.0,29.88,NW,306,0.0,-999.0,24,-99.99,,,0.00,weatherlink.com 1.10,2013-05-04 21:54:00,
2013-05-04 17:09:00,71.5,32.0,29.88,West,276,0.0,-999.0,23,-99.99,,,0.00,weatherlink.com 1.10,2013-05-04 22:09:00,
2013-05-04 17:24:00,71.5,32.0,29.88,NW,307,3.0,-999.0,23,-99.99,,,0.00,weatherlink.com 1.10,2013-05-04 22:24:00,
2013-05-04 17:39:00,71.7,32.0,29.88,WSW,257,0.0,-999.0,23,-99.99,,,0.00,weatherlink.com 1.10,2013-05-04 22:39:00,
2013-05-04 17:54:00,71.7,32.0,29.88,WNW,289,2.0,-999.0,23,-99.99,,,0.00,weatherlink.com 1.10,2013-05-04 22:54:00,
2013-05-04 18:09:00,70.8,29.0,29.88,SE,141,0.0,-999.0,21,-99.99,,,0.00,weatherlink.com 1.10,2013-05-04 23:09:00,
2013-05-04 18:24:00,70.4,29.0,29.89,NW,309,6.0,-999.0,21,-99.99,,,0.00,weatherlink.com 1.10,2013-05-04 23:24:00,
2013-05-04 18:39:00,69.7,28.0,29.88,WSW,238,3.0,-999.0,21,-99.99,,,0.00,weatherlink.com 1.10,2013-05-04 23:39:00,
2013-05-04 18:54:00,69.4,28.0,29.89,NE,34,0.0,-999.0,21,-99.99,,,0.00,weatherlink.com 1.10,2013-05-04 23:54:00,
2013-05-04 19:09:00,69.4,27.0,29.89,WSW,246,0.0,-999.0,20,-99.99,,,0.00,weatherlink.com 1.10,2013-05-05 00:09:00,
2013-05-04 19:24:00,69.0,27.0,29.89,NW,311,0.0,-999.0,21,-99.99,,,0.00,weatherlink.com 1.10,2013-05-05 00:24:00,
2013-05-04 19:39:00,68.2,27.0,29.90,WNW,301,0.0,-999.0,21,-99.99,,,0.00,weatherlink.com 1.10,2013-05-05 00:39:00,
2013-05-04 19:54:00,67.3,28.0,29.91,WNW,294,0.0,-999.0,23,-99.99,,,0.00,weatherlink.com 1.10,2013-05-05 00:54:00,
2013-05-04 20:09:00,65.0,37.0,29.92,ESE,105,5.0,-999.0,35,-99.99,,,0.00,weatherlink.com 1.10,2013-05-05 01:09:00,
2013-05-04 20:24:00,61.6,38.0,29.93,East,86,0.0,-999.0,42,-99.99,,,0.00,weatherlink.com 1.10,2013-05-05 01:24:00,
2013-05-04 20:39:00,59.9,38.0,29.94,East,86,6.0,-999.0,44,-99.99,,,0.00,weatherlink.com 1.10,2013-05-05 01:39:00,
2013-05-04 20:54:00,59.0,38.0,29.94,East,87,0.0,-999.0,45,-99.99,,,0.00,weatherlink.com 1.10,2013-05-05 01:54:00,
2013-05-04 21:09:00,58.2,37.0,29.95,ENE,78,1.0,-999.0,46,-99.99,,,0.00,weatherlink.com 1.10,2013-05-05 02:09:00,
2013-05-04 21:24:00,57.7,37.0,29.96,NE,55,0.0,-999.0,47,-99.99,,,0.00,weatherlink.com 1.10,2013-05-05 02:24:00,
2013-05-04 21:39:00,57.5,37.0,29.97,NE,44,6.0,-999.0,47,-99.99,,,0.00,weatherlink.com 1.10,2013-05-05 02:39:00,
2013-05-04 21:54:00,57.1,37.0,29.98,East,96,0.0,-999.0,48,-99.99,,,0.00,weatherlink.com 1.10,2013-05-05 02:54:00,
2013-05-04 22:09:00,56.7,38.0,29.98,NNE,32,0.0,-999.0,49,-99.99,,,0.00,weatherlink.com 1.10,2013-05-05 03:09:00,
2013-05-04 22:24:00,56.4,38.0,29.99,East,95,0.0,-999.0,50,-99.99,,,0.00,weatherlink.com 1.10,2013-05-05 03:24:00,
2013-05-04 22:39:00,56.1,38.0,30.00,ESE,103,5.0,-999.0,51,-99.99,,,0.00,weatherlink.com 1.10,2013-05-05 03:39:00,
2013-05-04 22:54:00,55.7,39.0,30.00,South,176,0.0,-999.0,53,-99.99,,,0.00,weatherlink.com 1.10,2013-05-05 03:54:00,
2013-05-04 23:09:00,55.2,39.0,30.00,ENE,72,0.0,-999.0,54,-99.99,,,0.00,weatherlink.com 1.10,2013-05-05 04:09:00,
2013-05-04 23:24:00,54.9,39.0,30.01,NE,35,0.0,-999.0,55,-99.99,,,0.00,weatherlink.com 1.10,2013-05-05 04:24:00,
2013-05-04 23:39:00,54.5,39.0,30.00,ENE,59,0.0,-999.0,56,-99.99,,,0.00,weatherlink.com 1.10,2013-05-05 04:39:00,
2013-05-04 23:54:00,54.1,39.0,30.01,ENE,62,0.0,-999.0,57,-99.99,,,0.00,weatherlink.com 1.10,2013-05-05 04:54:00,